GW0435 Weather Reports


Display with metric or nautical units.
time (UTC)temp
F
wind
direction
speed
MPH
gust
MPH
rain 1hr
in
rain 24hr
in
rain mn
in
humidity
%
barometer
mb
20260507023023 47 246 0.0 3.0 0.00 0.08 0.00 43 1010.8
20260507021513 49 246 3.0 6.0 0.00 0.08 0.00 41 1010.6
20260507020017 50 246 3.0 9.0 0.00 0.08 0.00 39 1010.5
20260507014512 51 242 3.0 8.0 0.00 0.09 0.00 37 1010.2
20260507013009 52 240 5.0 13.0 0.00 0.09 0.00 37 1010.0
20260507011507 53 312 4.0 14.0 0.00 0.09 0.00 34 1009.8
20260507010010 53 308 9.0 17.0 0.00 0.09 0.00 34 1009.7
20260507004503 54 300 8.0 15.0 0.00 0.09 0.00 35 1009.2
20260507003002 55 310 9.0 18.0 0.00 0.09 0.00 33 1008.8
20260507001559 56 302 7.0 11.0 0.00 0.09 0.00 38 1008.4
20260507000059 54 346 7.0 19.0 0.00 0.09 0.00 42 1008.3
20260506234556 57 298 6.0 10.0 0.00 0.09 0.00 33 1008.0
20260506233058 56 296 6.0 15.0 0.00 0.09 0.00 35 1008.0
20260506231558 54 257 6.0 9.0 0.00 0.09 0.00 40 1007.8
20260506230054 54 329 3.0 7.0 0.00 0.09 0.00 41 1007.9
20260506224554 53 342 4.0 11.0 0.00 0.09 0.00 45 1007.8
20260506223054 52 296 6.0 17.0 0.00 0.09 0.00 48 1007.9
20260506221553 54 314 11.0 20.0 0.00 0.09 0.00 44 1007.8
20260506220053 57 321 7.0 15.0 0.00 0.09 0.00 36 1006.9
20260506214601 58 242 7.0 19.0 0.00 0.09 0.00 33 1006.8
20260506213050 59 234 4.0 17.0 0.00 0.09 0.00 33 1006.8
20260506211547 58 214 12.0 19.0 0.00 0.09 0.00 34 1006.6
20260506210047 57 227 8.0 17.0 0.00 0.09 0.00 36 1006.7
20260506204550 57 204 6.0 14.0 0.00 0.09 0.00 36 1006.5
20260506203045 58 217 6.0 14.0 0.00 0.09 0.00 36 1006.7
20260506201544 58 232 6.0 15.0 0.00 0.09 0.00 36 1006.7
20260506200047 58 173 9.0 17.0 0.00 0.09 0.00 39 1006.7
20260506194543 57 238 11.0 19.0 0.00 0.09 0.00 38 1006.9
20260506193039 57 250 9.0 20.0 0.00 0.09 0.00 39 1006.8
20260506191537 56 267 7.0 19.0 0.00 0.09 0.00 41 1006.9
20260506190034 53 225 9.0 18.0 0.00 0.09 0.00 45 1007.0
20260506184533 53 221 11.0 20.0 0.00 0.09 0.00 47 1006.9
20260506183032 53 221 9.0 20.0 0.00 0.09 0.00 46 1007.3
20260506181531 54 281 8.0 17.0 0.00 0.09 0.00 47 1007.3
20260506180029 53 219 11.0 19.0 0.00 0.09 0.00 49 1007.5
20260506174524 51 227 13.0 22.0 0.00 0.09 0.00 53 1007.5
20260506173023 51 228 8.0 16.0 0.00 0.09 0.00 52 1007.6
20260506171522 50 205 10.0 16.0 0.00 0.09 0.00 56 1007.6
20260506170017 49 193 9.0 15.0 0.00 0.09 0.00 57 1007.6
20260506164514 49 176 6.0 11.0 0.00 0.09 0.00 58 1007.4
20260506163012 48 199 7.0 16.0 0.00 0.09 0.00 63 1007.5
20260506161509 47 194 4.0 9.0 0.00 0.09 0.00 65 1007.5
20260506160007 46 202 6.0 16.0 0.00 0.09 0.00 68 1007.6
20260506154502 45 215 7.0 12.0 0.00 0.09 0.00 70 1007.8
20260506153058 44 207 6.0 15.0 0.00 0.09 0.00 72 1007.8
20260506151555 44 213 6.0 10.0 0.00 0.09 0.00 75 1007.9
20260506150057 43 211 7.0 13.0 0.00 0.09 0.00 74 1007.8
20260506144603 42 213 7.0 10.0 0.00 0.09 0.00 76 1007.6
20260506143046 41 213 5.0 11.0 0.00 0.09 0.00 80 1007.4
20260506141543 39 225 4.0 8.0 0.00 0.09 0.00 83 1007.3
20260506140041 38 225 4.0 9.0 0.00 0.09 0.00 84 1007.5
20260506134537 38 225 3.0 6.0 0.00 0.09 0.00 85 1007.2
20260506133040 38 225 4.0 7.0 0.00 0.09 0.00 85 1007.1
20260506131533 37 225 3.0 6.0 0.00 0.09 0.00 85 1006.8
20260506130029 36 225 4.0 8.0 0.00 0.09 0.00 85 1006.6
20260506124527 36 225 5.0 9.0 0.00 0.09 0.00 85 1006.4
20260506123026 36 229 2.0 9.0 0.00 0.09 0.00 87 1006.3
20260506121527 35 231 1.0 4.0 0.00 0.09 0.00 87 1006.0
20260506120027 35 231 3.0 5.0 0.00 0.09 0.00 86 1005.8
20260506114516 36 232 1.0 6.0 0.00 0.09 0.00 85 1005.4
20260506113016 36 232 2.0 7.0 0.00 0.09 0.00 85 1005.4
20260506111514 36 231 5.0 11.0 0.00 0.09 0.00 85 1004.9
20260506110013 37 227 2.0 5.0 0.00 0.09 0.00 83 1005.3
20260506104509 37 227 3.0 7.0 0.00 0.09 0.00 83 1005.1
20260506103006 37 227 3.0 7.0 0.00 0.09 0.00 82 1005.0
20260506101505 37 227 0.0 5.0 0.00 0.09 0.00 82 1004.9
20260506100004 37 227 2.0 5.0 0.00 0.09 0.00 84 1004.8
20260506094615 37 227 1.0 3.0 0.00 0.09 0.00 85 1004.7
20260506093100 38 227 3.0 9.0 0.00 0.09 0.00 86 1004.6
20260506091559 38 228 1.0 7.0 0.00 0.09 0.00 87 1004.5
20260506090100 38 228 0.0 3.0 0.00 0.09 0.00 89 1004.4
20260506084559 38 228 1.0 3.0 0.00 0.09 0.00 89 1004.2
20260506083100 38 228 1.0 4.0 0.00 0.09 0.00 90 1004.1
20260506081554 38 228 2.0 6.0 0.00 0.09 0.00 90 1004.0
20260506080106 38 228 4.0 7.0 0.00 0.09 0.00 90 1004.2
20260506073102 39 228 1.0 4.0 0.00 0.09 0.00 89 1004.4
20260506071548 39 228 0.0 2.0 0.00 0.09 0.00 89 1004.1
20260506061538 39 228 1.0 3.0 0.00 0.09 0.00 88 1003.4
20260506044539 41 201 2.0 8.0 0.01 0.08 0.08 91 1003.9
20260506043028 40 321 0.0 3.0 0.00 0.07 0.07 90 1002.9
20260506041538 40 321 1.0 4.0 0.00 0.07 0.07 90 1002.2
20260506040032 40 321 2.0 6.0 0.01 0.07 0.07 90 1002.2
20260506034531 40 321 2.0 7.0 0.04 0.07 0.07 89 1002.3
20260506033025 40 321 4.0 7.0 0.06 0.07 0.07 89 1002.4
20260506031520 41 306 7.0 15.0 0.06 0.07 0.07 87 1002.3
20260506030016 42 346 4.0 9.0 0.05 0.06 0.06 85 1001.8
20260506024517 44 281 7.0 14.0 0.01 0.02 0.02 83 1001.8